Location: Limerick
(52.6650°N, 8.6230°W)
Time: 17:26:07
(UTC+01:00)

ISS - Visible Passes

Search period start: 20 July 2017 00:00
Search period end: 30 July 2017 00:00
Orbit: 400 x 408 km, 51.6° (Epoch: 20 July)

Date Brightness Start Highest point End Pass type
(mag) Time Alt. Az. Time Alt. Az. Time Alt. Az.
20 Jul -3.7 01:52:51 49° S 01:52:59 50° SSE 01:56:10 10° E visible
20 Jul -4.0 03:26:04 10° W 03:29:21 75° S 03:32:36 10° E visible
21 Jul -2.6 01:01:56 27° ESE 01:01:56 27° ESE 01:03:48 10° E visible
21 Jul -4.0 02:34:33 16° W 02:37:02 74° S 02:40:18 10° E visible
21 Jul -3.7 04:10:12 10° W 04:13:25 54° SSW 04:16:37 10° ESE visible
22 Jul -1.7 00:10:42 14° E 00:10:42 14° E 00:11:22 10° E visible
22 Jul -4.0 01:43:17 29° WSW 01:44:44 67° S 01:47:59 10° E visible
22 Jul -3.9 03:17:53 10° W 03:21:08 66° S 03:24:23 10° ESE visible
22 Jul -2.4 23:14:07 10° S 23:16:26 18° SE 23:18:46 10° E visible
23 Jul -3.8 00:49:15 10° WSW 00:52:27 54° SSE 00:55:39 10° E visible
23 Jul -4.0 02:25:34 10° W 02:28:49 74° S 02:32:05 10° E visible
23 Jul -3.3 04:02:03 10° W 04:05:06 36° SSW 04:08:08 10° SE visible
23 Jul -3.5 23:57:05 10° SW 00:00:10 41° SSE 00:03:17 10° E visible
24 Jul -4.0 01:33:13 10° W 01:36:29 75° S 01:39:45 10° E visible
24 Jul -3.7 03:09:39 10° W 03:12:50 49° SSW 03:16:01 10° ESE visible
24 Jul -2.2 04:46:44 10° WSW 04:48:47 16° SW 04:50:51 10° S visible
24 Jul -3.0 23:05:03 10° SW 23:07:56 30° SSE 23:10:50 10° E visible
25 Jul -4.0 00:40:54 10° WSW 00:44:09 70° S 00:47:24 10° E visible
25 Jul -3.9 02:17:18 10° W 02:20:31 62° SSW 02:23:45 10° ESE visible
25 Jul -2.7 03:53:59 10° W 03:56:38 23° SSW 03:59:18 10° SSE visible
25 Jul -3.9 23:48:35 10° WSW 23:51:48 59° SSE 23:55:01 10° E visible
26 Jul -4.0 01:24:56 10° W 01:28:11 72° S 01:29:04 44° ESE visible
26 Jul -1.3 03:01:27 10° W 03:01:37 11° W 03:01:37 11° W visible
26 Jul -3.6 22:56:21 10° SW 22:59:29 46° SSE 23:02:38 10° E visible
27 Jul -4.0 00:32:33 10° W 00:35:49 76° S 00:37:40 23° E visible
27 Jul -2.0 02:09:00 10° W 02:10:15 20° W 02:10:15 20° W visible
27 Jul -4.0 23:40:11 10° WSW 23:43:26 73° S 23:46:38 10° E visible
28 Jul -3.5 01:16:35 10° W 01:19:14 48° WSW 01:19:14 48° WSW visible
28 Jul -3.9 22:47:50 10° WSW 22:51:03 63° SSE 22:54:17 10° E visible
29 Jul -4.0 00:24:11 10° W 00:27:26 69° S 00:28:19 43° ESE visible
29 Jul -1.2 02:00:45 10° W 02:00:55 11° W 02:00:55 11° W visible
29 Jul -4.0 23:31:46 10° W 23:35:02 75° S 23:37:27 17° E visible
